GS-1

Last updated on Fri Jun 19 2026 17:09:35 GMT+0000 (Coordinated Universal Time)

1 56372U 23060C 26169.72235685 -.00000232 00000+0 00000+0 0 9992 2 56372 2.7297 79.8139 0003742 281.5832 255.0259 1.00274169 7559
UTC large
Height (km)
Speed (km/s)
/
Latitude / Longitude
Inclination (degrees)
Orbital Period (minutes)
Azimuth
Elevation
Range (km)
Doppler Factor

Next 0 passes for location: London (51.5072 / 0.1276)

No passes found over London.
GS-1